GSAT0202 (GALILEO 6)

Last updated on Fri Sep 04 2026 00:02:48 GMT+0000 (Coordinated Universal Time)

1 40129U 14050B 26246.28604588 .00000027 00000+0 00000+0 0 9994 2 40129 48.8105 269.3124 1686615 183.1253 175.6970 1.85520153 81933
UTC large
Height (km)
Speed (km/s)
/
Latitude / Longitude
Inclination (degrees)
Orbital Period (minutes)
Azimuth
Elevation
Range (km)
Doppler Factor

Next 0 passes for location: London (51.5072 / 0.1276)

No passes found over London.
GSAT0202 (GALILEO 6)